When you browse on this site, cookies collect data to enhance your experience and personalize the content and advertising you see.
Visit our Privacy Policy to learn more. By continuing to use the site, you agree to this use of cookies and data.
  • în România
  • Lista ţărilor
  • Pe 7 zile
  • Temperatura apei
  • Meteo pe hartă
  • Widget-uri
  • user-avatar
    Intrare

    Meteo pe oră la Pinsa

    Astăzi, 21 Ianuarie, Marţi

    Timp Temperatura Precipitaţii Vânt Presiune Umiditate
    00:00 +24°C° 0 mm 3 m/s 734 mmHg 22%
    01:00 +22°C° 0 mm 3 m/s 734 mmHg 23%
    02:00 +22°C° 0 mm 3 m/s 733 mmHg 24%
    03:00 +21°C° 0 mm 3 m/s 733 mmHg 25%
    04:00 +21°C° 0 mm 3 m/s 734 mmHg 26%
    05:00 +21°C° 0 mm 3 m/s 734 mmHg 27%
    06:00 +21°C° 0 mm 3 m/s 734 mmHg 28%
    07:00 +23°C° 0 mm 4 m/s 735 mmHg 26%
    08:00 +26°C° 0 mm 5 m/s 735 mmHg 24%
    09:00 +28°C° 0 mm 5 m/s 736 mmHg 21%
    10:00 +32°C° 0 mm 5 m/s 735 mmHg 19%
    11:00 +34°C° 0 mm 5 m/s 735 mmHg 16%
    12:00 +36°C° 0 mm 4 m/s 735 mmHg 14%
    13:00 +37°C° 0 mm 3 m/s 734 mmHg 13%
    14:00 +37°C° 0 mm 2 m/s 733 mmHg 13%
    15:00 +37°C° 0 mm 1 m/s 733 mmHg 12%
    16:00 +36°C° 0 mm 2 m/s 733 mmHg 14%
    17:00 +34°C° 0 mm 2 m/s 733 mmHg 16%
    18:00 +31°C° 0 mm 2 m/s 733 mmHg 18%
    19:00 +30°C° 0 mm 3 m/s 734 mmHg 18%
    20:00 +30°C° 0 mm 3 m/s 734 mmHg 19%
    21:00 +29°C° 0 mm 4 m/s 735 mmHg 20%
    22:00 +28°C° 0 mm 4 m/s 735 mmHg 21%
    23:00 +28°C° 0 mm 4 m/s 735 mmHg 22%

    Mâine, 22 Ianuarie, Miercuri

    Timp Temperatura Precipitaţii Vânt Presiune Umiditate
    00:00 +27°C° 0 mm 4 m/s 734 mmHg 23%
    01:00 +27°C° 0 mm 4 m/s 734 mmHg 24%
    02:00 +26°C° 0 mm 3 m/s 734 mmHg 25%
    03:00 +26°C° 0 mm 3 m/s 734 mmHg 26%
    04:00 +25°C° 0 mm 3 m/s 734 mmHg 26%
    05:00 +25°C° 0 mm 3 m/s 734 mmHg 27%
    06:00 +25°C° 0 mm 3 m/s 734 mmHg 27%
    07:00 +27°C° 0 mm 5 m/s 735 mmHg 24%
    08:00 +29°C° 0 mm 6 m/s 736 mmHg 21%
    09:00 +32°C° 0 mm 7 m/s 737 mmHg 18%
    10:00 +34°C° 0 mm 7 m/s 736 mmHg 16%
    11:00 +36°C° 0 mm 7 m/s 736 mmHg 14%
    12:00 +39°C° 0 mm 7 m/s 735 mmHg 12%
    13:00 +39°C° 0 mm 7 m/s 735 mmHg 12%
    14:00 +40°C° 0 mm 6 m/s 734 mmHg 11%
    15:00 +40°C° 0 mm 6 m/s 733 mmHg 11%
    16:00 +37°C° 0 mm 5 m/s 733 mmHg 12%
    17:00 +35°C° 0 mm 5 m/s 733 mmHg 13%
    18:00 +34°C° 0 mm 4 m/s 733 mmHg 14%
    19:00 +32°C° 0 mm 4 m/s 734 mmHg 14%
    20:00 +30°C° 0 mm 4 m/s 734 mmHg 15%
    21:00 +29°C° 0 mm 4 m/s 735 mmHg 15%
    22:00 +28°C° 0 mm 4 m/s 735 mmHg 16%
    23:00 +27°C° 0 mm 4 m/s 735 mmHg 16%

    Poimâine, 23 Ianuarie, Joi

    Timp Temperatura Precipitaţii Vânt Presiune Umiditate
    00:00 +26°C° 0 mm 4 m/s 734 mmHg 17%
    01:00 +26°C° 0 mm 4 m/s 734 mmHg 17%
    02:00 +25°C° 0 mm 4 m/s 734 mmHg 16%
    03:00 +25°C° 0 mm 4 m/s 734 mmHg 16%
    04:00 +23°C° 0 mm 4 m/s 734 mmHg 16%
    05:00 +23°C° 0 mm 4 m/s 734 mmHg 16%
    06:00 +23°C° 0 mm 4 m/s 734 mmHg 16%
    07:00 +26°C° 0 mm 6 m/s 735 mmHg 14%
    08:00 +28°C° 0 mm 7 m/s 735 mmHg 11%
    09:00 +31°C° 0 mm 8 m/s 736 mmHg 9%
    10:00 +33°C° 0 mm 8 m/s 736 mmHg 8%
    11:00 +34°C° 0 mm 8 m/s 735 mmHg 7%
    12:00 +37°C° 0 mm 8 m/s 735 mmHg 7%
    13:00 +38°C° 0 mm 8 m/s 735 mmHg 6%
    14:00 +38°C° 0 mm 8 m/s 734 mmHg 6%
    15:00 +39°C° 0 mm 8 m/s 733 mmHg 6%
    16:00 +36°C° 0 mm 6 m/s 733 mmHg 7%
    17:00 +34°C° 0 mm 5 m/s 733 mmHg 7%
    18:00 +32°C° 0 mm 4 m/s 733 mmHg 8%
    19:00 +30°C° 0 mm 4 m/s 734 mmHg 8%
    20:00 +29°C° 0 mm 4 m/s 734 mmHg 9%
    21:00 +27°C° 0 mm 4 m/s 735 mmHg 9%
    22:00 +27°C° 0 mm 4 m/s 735 mmHg 9%
    23:00 +26°C° 0 mm 4 m/s 735 mmHg 9%

    24 Ianuarie, Vineri

    Timp Temperatura Precipitaţii Vânt Presiune Umiditate
    00:00 +26°C° 0 mm 4 m/s 735 mmHg 8%
    01:00 +25°C° 0 mm 4 m/s 735 mmHg 9%
    02:00 +25°C° 0 mm 4 m/s 734 mmHg 9%
    03:00 +23°C° 0 mm 4 m/s 734 mmHg 9%
    04:00 +23°C° 0 mm 4 m/s 734 mmHg 10%
    05:00 +22°C° 0 mm 4 m/s 734 mmHg 11%
    06:00 +21°C° 0 mm 4 m/s 735 mmHg 11%
    07:00 +23°C° 0 mm 6 m/s 735 mmHg 11%
    08:00 +26°C° 0 mm 7 m/s 736 mmHg 10%
    09:00 +28°C° 0 mm 9 m/s 736 mmHg 9%
    10:00 +31°C° 0 mm 8 m/s 736 mmHg 8%
    11:00 +33°C° 0 mm 8 m/s 736 mmHg 7%
    12:00 +37°C° 0 mm 8 m/s 736 mmHg 6%
    13:00 +37°C° 0 mm 8 m/s 735 mmHg 6%
    14:00 +38°C° 0 mm 8 m/s 734 mmHg 6%
    15:00 +38°C° 0 mm 7 m/s 734 mmHg 5%
    16:00 +36°C° 0 mm 6 m/s 734 mmHg 6%
    17:00 +34°C° 0 mm 6 m/s 734 mmHg 6%
    18:00 +32°C° 0 mm 5 m/s 734 mmHg 7%
    19:00 +30°C° 0 mm 5 m/s 734 mmHg 8%
    20:00 +28°C° 0 mm 4 m/s 735 mmHg 8%
    21:00 +27°C° 0 mm 4 m/s 735 mmHg 9%
    22:00 +26°C° 0 mm 4 m/s 735 mmHg 9%
    23:00 +25°C° 0 mm 4 m/s 735 mmHg 10%

    25 Ianuarie, Sâmbătă

    Timp Temperatura Precipitaţii Vânt Presiune Umiditate
    00:00 +23°C° 0 mm 4 m/s 735 mmHg 10%
    01:00 +23°C° 0 mm 4 m/s 735 mmHg 11%
    02:00 +22°C° 0 mm 4 m/s 735 mmHg 11%
    03:00 +21°C° 0 mm 4 m/s 735 mmHg 12%
    04:00 +21°C° 0 mm 4 m/s 735 mmHg 12%
    05:00 +21°C° 0 mm 5 m/s 735 mmHg 12%
    06:00 +20°C° 0 mm 5 m/s 735 mmHg 12%
    07:00 +23°C° 0 mm 6 m/s 736 mmHg 11%
    08:00 +26°C° 0 mm 7 m/s 736 mmHg 9%
    09:00 +28°C° 0 mm 9 m/s 736 mmHg 8%
    10:00 +31°C° 0 mm 9 m/s 736 mmHg 7%
    11:00 +34°C° 0 mm 9 m/s 736 mmHg 6%
    12:00 +37°C° 0 mm 9 m/s 735 mmHg 5%
    13:00 +38°C° 0 mm 9 m/s 735 mmHg 5%
    14:00 +38°C° 0 mm 8 m/s 734 mmHg 4%
    15:00 +39°C° 0 mm 8 m/s 733 mmHg 4%
    16:00 +36°C° 0 mm 7 m/s 733 mmHg 5%
    17:00 +34°C° 0 mm 5 m/s 733 mmHg 6%
    18:00 +32°C° 0 mm 4 m/s 734 mmHg 7%
    19:00 +29°C° 0 mm 4 m/s 734 mmHg 7%
    20:00 +28°C° 0 mm 4 m/s 735 mmHg 8%
    21:00 +26°C° 0 mm 5 m/s 735 mmHg 8%
    22:00 +26°C° 0 mm 4 m/s 735 mmHg 8%
    23:00 +25°C° 0 mm 4 m/s 735 mmHg 8%

    26 Ianuarie, Duminică

    Timp Temperatura Precipitaţii Vânt Presiune Umiditate
    00:00 +23°C° 0 mm 4 m/s 735 mmHg 8%
    01:00 +22°C° 0 mm 4 m/s 735 mmHg 8%
    02:00 +22°C° 0 mm 4 m/s 735 mmHg 8%
    03:00 +21°C° 0 mm 4 m/s 735 mmHg 8%
    04:00 +20°C° 0 mm 4 m/s 735 mmHg 9%
    05:00 +20°C° 0 mm 4 m/s 735 mmHg 9%
    06:00 +19°C° 0 mm 4 m/s 735 mmHg 9%
    07:00 +22°C° 0 mm 5 m/s 736 mmHg 8%
    08:00 +24°C° 0 mm 6 m/s 736 mmHg 8%
    09:00 +27°C° 0 mm 7 m/s 737 mmHg 7%
    10:00 +29°C° 0 mm 7 m/s 737 mmHg 6%
    11:00 +33°C° 0 mm 7 m/s 736 mmHg 5%
    12:00 +35°C° 0 mm 7 m/s 736 mmHg 5%
    13:00 +36°C° 0 mm 7 m/s 735 mmHg 4%
    14:00 +36°C° 0 mm 7 m/s 735 mmHg 4%
    15:00 +38°C° 0 mm 6 m/s 734 mmHg 4%
    16:00 +35°C° 0 mm 5 m/s 734 mmHg 4%
    17:00 +33°C° 0 mm 5 m/s 734 mmHg 5%
    18:00 +29°C° 0 mm 4 m/s 734 mmHg 6%
    19:00 +28°C° 0 mm 4 m/s 734 mmHg 6%
    20:00 +27°C° 0 mm 4 m/s 735 mmHg 6%
    21:00 +26°C° 0 mm 4 m/s 735 mmHg 7%
    22:00 +25°C° 0 mm 4 m/s 735 mmHg 7%
    23:00 +23°C° 0 mm 4 m/s 735 mmHg 7%
    Arată mai mult